DW3560 Weather Reports


Display with metric or nautical units.
time (UTC)temp
F
wind
direction
speed
MPH
gust
MPH
rain 1hr
in
rain 24hr
in
rain mn
in
humidity
%
barometer
mb
20200227123003 62 71 2.0 5.0 0.00 0.00 0.00 51 1023.2
20200227122503 62 69 3.0 6.0 0.00 0.00 0.00 51 1023.2
20200227122003 61 68 2.0 7.0 0.00 0.00 0.00 52 1023.2
20200227121503 61 71 3.0 7.0 0.00 0.00 0.00 53 1023.2
20200227121003 61 61 3.0 7.0 0.00 0.00 0.00 53 1023.2
20200227120502 61 59 2.0 8.0 0.00 0.00 0.00 53 1023.2
20200227120003 60 69 2.0 8.0 0.00 0.00 0.00 53 1023.2
20200227115503 60 75 1.0 4.0 0.00 0.00 0.00 54 1023.2
20200227115003 60 88 1.0 4.0 0.00 0.00 0.00 54 1023.4
20200227114502 60 111 1.0 3.0 0.00 0.00 0.00 54 1023.5
20200227114003 60 122 0.0 3.0 0.00 0.00 0.00 53 1023.5
20200227113502 60 131 0.0 3.0 0.00 0.00 0.00 53 1023.5
20200227113003 60 146 0.0 1.0 0.00 0.00 0.00 53 1023.6
20200227112502 60 146 0.0 1.0 0.00 0.00 0.00 53 1023.7
20200227112003 60 145 0.0 2.0 0.00 0.00 0.00 54 1023.7
20200227111503 60 146 0.0 2.0 0.00 0.00 0.00 54 1023.8
20200227111042 60 146 0.0 1.0 0.00 0.00 0.00 54 1023.9
20200227110502 60 0 0.0 0.0 0.00 0.00 0.00 53 1023.9
20200227110003 60 145 1.0 2.0 0.00 0.00 0.00 54 1023.9
20200227105503 60 146 1.0 3.0 0.00 0.00 0.00 54 1024.0
20200227105003 60 145 1.0 3.0 0.00 0.00 0.00 54 1024.0
20200227104503 60 145 0.0 2.0 0.00 0.00 0.00 54 1024.1
20200227104004 60 146 0.0 1.0 0.00 0.00 0.00 54 1024.1
20200227103503 60 0 0.0 0.0 0.00 0.00 0.00 54 1024.1
20200227103003 60 0 0.0 0.0 0.00 0.00 0.00 54 1024.1
20200227102503 60 0 0.0 0.0 0.00 0.00 0.00 54 1024.1
20200227102003 60 0 0.0 0.0 0.00 0.00 0.00 55 1024.1
20200227101503 60 146 1.0 1.0 0.00 0.00 0.00 55 1024.2
20200227101003 60 145 2.0 2.0 0.00 0.00 0.00 55 1024.2
20200227100503 60 145 2.0 3.0 0.00 0.00 0.00 55 1024.2
20200227100003 60 146 3.0 3.0 0.00 0.00 0.00 55 1024.2
20200227095502 60 146 3.0 4.0 0.00 0.00 0.00 55 1024.2
20200227095003 60 146 4.0 4.0 0.00 0.00 0.00 55 1024.3
20200227094503 60 155 3.0 5.0 0.00 0.00 0.00 56 1024.3
20200227094004 60 164 3.0 5.0 0.00 0.00 0.00 56 1024.5
20200227093503 60 169 3.0 5.0 0.00 0.00 0.00 56 1024.6
20200227093002 60 167 2.0 5.0 0.00 0.00 0.00 55 1024.6
20200227092503 60 164 2.0 5.0 0.00 0.00 0.00 55 1024.6
20200227092003 60 162 2.0 4.0 0.00 0.00 0.00 55 1024.6
20200227091503 60 162 3.0 4.0 0.00 0.00 0.00 54 1024.6
20200227091003 60 162 3.0 5.0 0.00 0.00 0.00 56 1024.5
20200227090511 60 162 3.0 5.0 0.00 0.00 0.00 57 1024.5
20200227090003 60 162 3.0 5.0 0.00 0.00 0.00 57 1024.5
20200227085503 60 162 3.0 5.0 0.00 0.00 0.00 57 1024.5
20200227085003 60 162 3.0 5.0 0.00 0.00 0.00 57 1024.5
20200227084503 60 163 3.0 5.0 0.00 0.00 0.00 56 1024.5
20200227084003 60 167 3.0 5.0 0.00 0.00 0.00 56 1024.5
20200227083503 60 169 3.0 5.0 0.00 0.00 0.00 56 1024.5
20200227083003 60 168 3.0 5.0 0.00 0.00 0.00 56 1024.5
20200227082503 60 166 3.0 5.0 0.00 0.00 0.00 56 1024.5
20200227082003 60 164 3.0 5.0 0.00 0.00 0.00 56 1024.6
20200227081503 60 160 3.0 5.0 0.00 0.00 0.00 56 1024.6
20200227081003 60 157 4.0 5.0 0.00 0.00 0.00 56 1024.6
20200227080504 60 161 4.0 5.0 0.00 0.00 0.00 55 1024.6
20200227080010 61 164 4.0 5.0 0.00 0.00 0.00 55 1024.6
20200227075503 61 164 4.0 5.0 0.00 0.00 0.00 54 1024.7
20200227075003 61 159 4.0 5.0 0.00 0.00 0.00 54 1024.7
20200227074503 61 155 4.0 5.0 0.00 0.00 0.00 54 1024.7
20200227074003 61 157 3.0 5.0 0.00 0.00 0.00 53 1024.7
20200227073502 62 164 3.0 5.0 0.00 0.00 0.00 53 1024.7
20200227073003 62 170 2.0 5.0 0.00 0.00 0.00 53 1024.7
20200227072503 62 171 2.0 4.0 0.00 0.00 0.00 52 1024.8
20200227072002 62 171 3.0 4.0 0.00 0.00 0.00 52 1024.8
20200227071503 62 171 3.0 5.0 0.00 0.00 0.00 52 1024.8
20200227071003 62 171 2.0 5.0 0.00 0.00 0.00 51 1024.9
20200227070503 62 170 1.0 5.0 0.00 0.00 0.00 51 1024.8
20200227070002 62 171 0.0 4.0 0.00 0.00 0.00 50 1024.8
20200227065503 62 170 1.0 2.0 0.00 0.00 0.00 49 1024.8
20200227065003 62 170 2.0 4.0 0.00 0.00 0.00 49 1024.9
20200227064503 62 171 3.0 5.0 0.00 0.00 0.00 49 1024.7
20200227064003 62 171 3.0 5.0 0.00 0.00 0.00 50 1024.8
20200227063503 63 171 2.0 5.0 0.00 0.00 0.00 50 1024.8
20200227063002 63 172 2.0 5.0 0.00 0.00 0.00 49 1024.9
20200227062503 63 172 2.0 3.0 0.00 0.00 0.00 49 1024.9
20200227062003 63 173 2.0 3.0 0.00 0.00 0.00 48 1024.8
20200227061503 63 173 2.0 5.0 0.00 0.00 0.00 48 1024.9
20200227061003 63 173 2.0 5.0 0.00 0.00 0.00 48 1024.9
20200227060503 64 173 2.0 3.0 0.00 0.00 0.00 47 1024.9
20200227060004 64 174 2.0 3.0 0.00 0.00 0.00 47 1025.0
20200227055503 64 165 1.0 4.0 0.00 0.00 0.00 48 1024.9
20200227055003 64 157 0.0 4.0 0.00 0.00 0.00 48 1025.0
20200227054503 64 0 0.0 0.0 0.00 0.00 0.00 48 1024.9
20200227054003 64 56 0.0 1.0 0.00 0.00 0.00 48 1025.0
20200227053503 64 55 1.0 2.0 0.00 0.00 0.00 48 1025.0
20200227053003 64 55 1.0 2.0 0.00 0.00 0.00 48 1025.0
20200227052504 64 55 1.0 2.0 0.00 0.00 0.00 48 1024.9
20200227052003 64 55 1.0 2.0 0.00 0.00 0.00 48 1024.9
20200227051503 64 55 1.0 3.0 0.00 0.00 0.00 48 1024.9
20200227051003 63 55 1.0 3.0 0.00 0.00 0.00 49 1024.8
20200227050503 63 55 0.0 2.0 0.00 0.00 0.00 49 1024.8
20200227050003 63 55 1.0 2.0 0.00 0.00 0.00 49 1024.8
20200227045503 63 55 1.0 3.0 0.00 0.00 0.00 50 1024.7
20200227045003 63 48 1.0 3.0 0.00 0.00 0.00 50 1024.6
20200227044503 63 35 0.0 3.0 0.00 0.00 0.00 50 1024.6
20200227044003 63 357 0.0 2.0 0.00 0.00 0.00 50 1024.5
20200227043502 63 343 0.0 1.0 0.00 0.00 0.00 50 1024.6
20200227043003 63 343 0.0 1.0 0.00 0.00 0.00 50 1024.6
20200227042503 63 342 0.0 1.0 0.00 0.00 0.00 47 1024.5
20200227042003 63 343 1.0 1.0 0.00 0.00 0.00 46 1024.4
20200227041503 63 342 1.0 1.0 0.00 0.00 0.00 44 1024.4
20200227041003 63 342 0.0 1.0 0.00 0.00 0.00 44 1024.5
20200227040503 63 342 0.0 1.0 0.00 0.00 0.00 43 1024.4
20200227040003 63 342 0.0 2.0 0.00 0.00 0.00 43 1024.3
20200227035503 63 342 0.0 2.0 0.00 0.00 0.00 44 1024.4
20200227035003 63 0 0.0 0.0 0.00 0.00 0.00 44 1024.4
20200227034504 63 0 0.0 0.0 0.00 0.00 0.00 45 1024.5
20200227034041 63 342 0.0 1.0 0.00 0.00 0.00 46 1024.4
20200227033504 64 342 0.0 1.0 0.00 0.00 0.00 46 1024.4
20200227033004 64 342 0.0 1.0 0.00 0.00 0.00 47 1024.6
20200227032503 64 0 0.0 0.0 0.00 0.00 0.00 47 1024.7
20200227032003 64 0 0.0 0.0 0.00 0.00 0.00 48 1024.7
20200227031503 64 0 0.0 0.0 0.00 0.00 0.00 48 1024.7
20200227031003 64 342 1.0 2.0 0.00 0.00 0.00 48 1024.7
20200227030503 64 341 1.0 2.0 0.00 0.00 0.00 48 1024.6
20200227030003 64 337 1.0 3.0 0.00 0.00 0.00 48 1024.7
20200227025503 64 334 1.0 3.0 0.00 0.00 0.00 48 1024.6
20200227025004 65 331 1.0 2.0 0.00 0.00 0.00 48 1024.6
20200227024503 65 330 1.0 2.0 0.00 0.00 0.00 47 1024.6
20200227024003 65 329 1.0 2.0 0.00 0.00 0.00 47 1024.5
20200227023503 65 329 0.0 2.0 0.00 0.00 0.00 47 1024.5
20200227023003 65 329 0.0 2.0 0.00 0.00 0.00 47 1024.3
20200227022503 65 328 0.0 1.0 0.00 0.00 0.00 47 1024.4
20200227022003 65 329 0.0 1.0 0.00 0.00 0.00 48 1024.4
20200227021503 65 329 0.0 1.0 0.00 0.00 0.00 48 1024.4
20200227021003 65 0 0.0 0.0 0.00 0.00 0.00 48 1024.4
20200227020503 65 328 0.0 1.0 0.00 0.00 0.00 48 1024.3
20200227020004 65 329 0.0 2.0 0.00 0.00 0.00 48 1024.3
20200227015504 66 329 1.0 2.0 0.00 0.00 0.00 48 1024.3
20200227015004 66 329 1.0 3.0 0.00 0.00 0.00 48 1024.4
20200227014504 67 329 1.0 3.0 0.00 0.00 0.00 47 1024.4
20200227014041 67 329 1.0 3.0 0.00 0.00 0.00 47 1024.3
20200227013503 67 329 0.0 3.0 0.00 0.00 0.00 46 1024.3
20200227013004 68 322 1.0 2.0 0.00 0.00 0.00 46 1024.4
20200227012504 68 316 1.0 3.0 0.00 0.00 0.00 45 1024.4
20200227012004 69 313 1.0 3.0 0.00 0.00 0.00 44 1024.5
20200227011504 69 297 1.0 4.0 0.00 0.00 0.00 44 1024.5
20200227011004 69 297 1.0 4.0 0.00 0.00 0.00 43 1024.5
20200227010503 69 310 1.0 3.0 0.00 0.00 0.00 43 1024.5
20200227010004 69 313 1.0 4.0 0.00 0.00 0.00 43 1024.5
20200227005503 70 318 1.0 4.0 0.00 0.00 0.00 42 1024.5
20200227005004 70 317 1.0 4.0 0.00 0.00 0.00 41 1024.5
20200227004504 70 314 2.0 5.0 0.00 0.00 0.00 40 1024.5
20200227004004 70 314 2.0 5.0 0.00 0.00 0.00 40 1024.5
20200227003503 70 314 2.0 5.0 0.00 0.00 0.00 40 1024.6
20200227003003 70 317 2.0 5.0 0.00 0.00 0.00 40 1024.6
20200227002504 71 309 2.0 5.0 0.00 0.00 0.00 39 1024.6
20200227002003 71 283 2.0 4.0 0.00 0.00 0.00 38 1024.8
20200227001504 71 290 2.0 5.0 0.00 0.00 0.00 37 1024.8
20200227001003 71 304 2.0 9.0 0.00 0.00 0.00 36 1024.8
20200227000503 71 314 2.0 9.0 0.00 0.00 0.00 36 1024.7
20200227000004 71 330 2.0 5.0 0.00 0.00 0.00 36 1024.7
20200226235503 71 324 2.0 6.0 0.00 0.00 0.00 35 1024.7
20200226235004 72 311 1.0 6.0 0.00 0.00 0.00 34 1024.8
20200226234503 72 289 2.0 5.0 0.00 0.00 0.00 33 1024.8
20200226234003 72 312 2.0 8.0 0.00 0.00 0.00 34 1024.8
20200226233503 71 322 3.0 8.0 0.00 0.00 0.00 35 1024.9
20200226233004 72 325 3.0 8.0 0.00 0.00 0.00 35 1024.9
20200226232503 71 330 2.0 8.0 0.00 0.00 0.00 36 1024.9
20200226232004 71 322 2.0 6.0 0.00 0.00 0.00 36 1025.0
20200226231503 71 310 2.0 6.0 0.00 0.00 0.00 34 1024.9
20200226231004 72 306 3.0 5.0 0.00 0.00 0.00 36 1024.9
20200226230504 71 316 3.0 5.0 0.00 0.00 0.00 36 1025.1
20200226230003 71 319 2.0 6.0 0.00 0.00 0.00 36 1025.1
20200226225504 71 316 2.0 8.0 0.00 0.00 0.00 35 1025.2
20200226225003 71 318 2.0 8.0 0.00 0.00 0.00 36 1025.3
20200226224504 71 318 2.0 8.0 0.00 0.00 0.00 36 1025.2
20200226224003 71 324 3.0 6.0 0.00 0.00 0.00 34 1025.3
20200226223503 71 310 3.0 7.0 0.00 0.00 0.00 37 1025.4
20200226223004 71 306 3.0 7.0 0.00 0.00 0.00 37 1025.5
20200226222503 71 327 3.0 6.0 0.00 0.00 0.00 39 1025.6
20200226222003 71 330 3.0 6.0 0.00 0.00 0.00 38 1025.6
20200226221503 71 333 3.0 6.0 0.00 0.00 0.00 39 1025.8
20200226221003 71 328 3.0 6.0 0.00 0.00 0.00 39 1025.7
20200226220503 71 315 3.0 6.0 0.00 0.00 0.00 39 1025.7
20200226220004 71 315 2.0 6.0 0.00 0.00 0.00 40 1025.8
20200226215503 71 316 2.0 6.0 0.00 0.00 0.00 41 1025.8
20200226215003 71 310 2.0 6.0 0.00 0.00 0.00 41 1025.8
20200226214503 71 312 2.0 7.0 0.00 0.00 0.00 39 1025.8
20200226214003 71 312 2.0 7.0 0.00 0.00 0.00 42 1025.9
20200226213503 71 305 2.0 5.0 0.00 0.00 0.00 43 1025.9
20200226213003 71 303 2.0 6.0 0.00 0.00 0.00 42 1025.9
20200226212537 71 305 2.0 6.0 0.00 0.00 0.00 41 1025.9
20200226212003 70 311 3.0 5.0 0.00 0.00 0.00 42 1025.9
20200226211504 70 318 3.0 7.0 0.00 0.00 0.00 42 1026.0
20200226211003 70 321 2.0 9.0 0.00 0.00 0.00 41 1026.2
20200226210503 70 319 2.0 9.0 0.00 0.00 0.00 40 1026.2
20200226210003 71 313 1.0 5.0 0.00 0.00 0.00 40 1026.3
20200226205503 71 309 1.0 5.0 0.00 0.00 0.00 38 1026.3
20200226205003 71 290 1.0 5.0 0.00 0.00 0.00 38 1026.4
20200226204503 70 264 2.0 4.0 0.00 0.00 0.00 35 1026.4
20200226204004 70 265 2.0 4.0 0.00 0.00 0.00 34 1026.4
20200226203503 70 234 2.0 4.0 0.00 0.00 0.00 36 1026.5
20200226203003 70 219 2.0 6.0 0.00 0.00 0.00 35 1026.6
20200226202504 70 224 2.0 6.0 0.00 0.00 0.00 33 1026.7
20200226202003 70 204 2.0 7.0 0.00 0.00 0.00 34 1026.8
20200226201503 69 224 2.0 8.0 0.00 0.00 0.00 34 1026.8
20200226201004 69 253 2.0 8.0 0.00 0.00 0.00 35 1026.9
20200226200503 69 246 2.0 8.0 0.00 0.00 0.00 38 1027.0
20200226200004 69 226 2.0 5.0 0.00 0.00 0.00 37 1027.0
20200226195503 69 238 2.0 7.0 0.00 0.00 0.00 37 1027.1
20200226195004 69 242 2.0 7.0 0.00 0.00 0.00 38 1027.1
20200226194503 69 224 2.0 6.0 0.00 0.00 0.00 37 1027.1
20200226194003 68 201 1.0 5.0 0.00 0.00 0.00 39 1027.2
20200226193503 68 212 1.0 4.0 0.00 0.00 0.00 39 1027.2
20200226193004 68 272 1.0 4.0 0.00 0.00 0.00 40 1027.3
20200226192554 67 293 1.0 4.0 0.00 0.00 0.00 40 1027.3
20200226192004 67 312 1.0 4.0 0.00 0.00 0.00 41 1027.3
20200226191504 66 317 1.0 4.0 0.00 0.00 0.00 42 1027.4
20200226191004 67 316 1.0 3.0 0.00 0.00 0.00 42 1027.3
20200226190503 66 311 1.0 3.0 0.00 0.00 0.00 44 1027.5
20200226190004 66 290 2.0 3.0 0.00 0.00 0.00 43 1027.5
20200226185504 66 250 2.0 5.0 0.00 0.00 0.00 43 1027.4
20200226185004 65 246 2.0 5.0 0.00 0.00 0.00 43 1027.5
20200226184503 66 253 2.0 6.0 0.00 0.00 0.00 41 1027.5
20200226184003 66 261 1.0 6.0 0.00 0.00 0.00 42 1027.5
20200226183504 66 262 1.0 4.0 0.00 0.00 0.00 43 1027.5
20200226183003 66 264 1.0 3.0 0.00 0.00 0.00 43 1027.5
20200226182503 65 278 1.0 3.0 0.00 0.00 0.00 45 1027.4
20200226182004 65 298 1.0 3.0 0.00 0.00 0.00 47 1027.5
20200226181504 65 316 1.0 3.0 0.00 0.00 0.00 48 1027.4
20200226181004 65 312 1.0 3.0 0.00 0.00 0.00 47 1027.4
20200226180504 64 306 1.0 4.0 0.00 0.00 0.00 48 1027.3
20200226180004 64 306 1.0 4.0 0.00 0.00 0.00 47 1027.3
20200226175504 64 306 2.0 3.0 0.00 0.00 0.00 50 1027.2
20200226175004 63 305 2.0 3.0 0.00 0.00 0.00 50 1027.2
20200226174503 63 304 2.0 4.0 0.00 0.00 0.00 50 1027.1
20200226174003 63 285 1.0 4.0 0.00 0.00 0.00 49 1027.1
20200226173503 64 219 0.0 3.0 0.00 0.00 0.00 47 1027.1
20200226173003 65 174 0.0 2.0 0.00 0.00 0.00 40 1027.1
20200226172503 65 173 0.0 2.0 0.00 0.00 0.00 44 1027.1
20200226172004 64 173 0.0 2.0 0.00 0.00 0.00 43 1027.1
20200226171504 64 173 0.0 1.0 0.00 0.00 0.00 43 1027.1
20200226171003 64 173 0.0 1.0 0.00 0.00 0.00 44 1027.1
20200226170504 63 173 0.0 1.0 0.00 0.00 0.00 44 1027.1
20200226170004 63 173 0.0 2.0 0.00 0.00 0.00 45 1027.1
20200226165504 62 173 0.0 2.0 0.00 0.00 0.00 46 1027.1
20200226165003 62 173 0.0 2.0 0.00 0.00 0.00 45 1027.1
20200226164504 62 173 1.0 1.0 0.00 0.00 0.00 45 1027.1
20200226164004 61 173 0.0 1.0 0.00 0.00 0.00 45 1027.1
20200226163503 61 173 0.0 2.0 0.00 0.00 0.00 44 1027.0
20200226163004 61 173 0.0 2.0 0.00 0.00 0.00 45 1027.1
20200226162504 61 173 1.0 2.0 0.00 0.00 0.00 46 1027.0
20200226162003 61 173 1.0 3.0 0.00 0.00 0.00 43 1026.9
20200226161504 60 168 1.0 4.0 0.00 0.00 0.00 45 1026.9
20200226161004 60 159 1.0 4.0 0.00 0.00 0.00 44 1026.8
20200226160504 61 130 1.0 2.0 0.00 0.00 0.00 43 1026.8
20200226160003 61 126 2.0 4.0 0.00 0.00 0.00 45 1026.7
20200226155503 61 121 2.0 7.0 0.00 0.00 0.00 43 1026.7
20200226155004 61 119 1.0 7.0 0.00 0.00 0.00 43 1026.6
20200226154504 60 118 1.0 4.0 0.00 0.00 0.00 45 1026.5
20200226154004 59 120 2.0 3.0 0.00 0.00 0.00 45 1026.4
20200226153504 59 120 2.0 4.0 0.00 0.00 0.00 45 1026.4
20200226153003 59 120 2.0 4.0 0.00 0.00 0.00 45 1026.3
20200226152503 59 119 2.0 4.0 0.00 0.00 0.00 43 1026.3
20200226152004 59 118 2.0 3.0 0.00 0.00 0.00 41 1026.1
20200226151504 58 117 2.0 2.0 0.00 0.00 0.00 42 1026.2
20200226130003 58 0 0.0 0.0 0.00 0.00 0.00 41 1025.3
20200226125503 58 76 1.0 1.0 0.00 0.00 0.00 41 1025.3
20200226125003 58 77 1.0 1.0 0.00 0.00 0.00 41 1025.3
20200226124503 58 77 0.0 1.0 0.00 0.00 0.00 41 1025.2
20200226124003 58 77 0.0 1.0 0.00 0.00 0.00 41 1025.1
20200226123504 59 77 0.0 2.0 0.00 0.00 0.00 40 1025.0